�N����,����,�~����,�C��,���x,�C��,����,���ϕ���,�ő�u�ԕ���,�ő厞����,���˗�,�I�_���x,�n�����x,�ő啗���N��,DTYPE
"21/09/04","00:10",0.4,21.4,96.3,1005.7,341.4,1.2,2.7,333.7,0.00,20.8,24.7,"00:02:32",1
"21/09/04","00:20",0.2,21.5,96.3,1005.5,357.3,1.1,2.1,353.1,0.00,20.9,24.7,"00:12:32",1
"21/09/04","00:30",0.0,21.4,96.4,1005.2,275.0,0.7,1.3,263.9,0.00,20.8,24.7,"00:24:40",1
"21/09/04","00:40",0.2,21.5,96.4,1005.0,251.8,1.1,2.0,240.4,0.00,20.9,24.7,"00:30:32",1
"21/09/04","00:50",0.0,21.5,96.4,1005.2,278.4,0.8,1.4,243.7,0.00,20.9,24.6,"00:41:04",1
"21/09/04","01:00",0.0,21.4,96.4,1005.2,317.5,0.8,1.9,340.6,0.00,20.8,24.6,"00:54:56",1
"21/09/04","01:10",0.0,21.5,96.5,1005.2,304.6,1.0,1.4,339.7,0.00,21.0,24.7,"01:02:08",1
"21/09/04","01:20",1.2,21.5,96.5,1005.0,319.4,1.0,2.4,344.0,0.00,21.0,24.7,"01:16:24",1
"21/09/04","01:30",0.2,21.4,96.5,1005.0,326.4,0.7,1.3,329.6,0.00,20.9,24.4,"01:22:24",1
"21/09/04","01:40",0.0,21.6,96.5,1005.0,257.4,1.0,1.4,249.9,0.00,21.1,24.6,"01:33:44",1
"21/09/04","01:50",0.0,21.6,96.5,1005.2,286.0,0.8,1.6,255.8,0.00,21.1,24.5,"01:41:20",1
"21/09/04","02:00",0.4,21.5,96.5,1005.2,295.9,0.7,1.4,325.4,0.00,21.0,24.7,"01:54:24",1
"21/09/04","02:10",0.0,21.5,96.6,1005.7,312.7,1.1,2.2,337.4,0.00,21.0,24.6,"02:05:44",1
"21/09/04","02:20",0.0,21.5,96.6,1005.7,315.8,0.8,1.7,334.2,0.00,21.0,24.6,"02:10:08",1
"21/09/04","02:30",0.0,21.5,96.6,1005.2,279.6,0.8,1.3,262.0,0.00,21.0,24.6,"02:28:48",1
"21/09/04","02:40",0.0,21.6,96.6,1005.5,294.2,0.6,1.0,313.1,0.00,21.1,24.4,"02:32:16",1
"21/09/04","02:50",0.0,21.6,96.6,1005.2,285.8,0.6,1.0,315.3,0.00,21.1,24.6,"02:40:24",1
"21/09/04","03:00",0.0,21.6,96.6,1005.0,293.7,0.7,1.1,307.3,0.00,21.1,24.5,"02:56:00",1
"21/09/04","03:10",0.0,21.5,96.7,1005.7,317.0,1.1,1.4,330.3,0.00,21.0,24.7,"03:00:02",1
"21/09/04","03:20",0.0,21.5,96.7,1005.7,317.7,0.7,1.2,337.4,0.00,21.0,24.7,"03:10:08",1
"21/09/04","03:30",0.0,21.5,96.7,1005.5,318.6,1.0,1.8,319.2,0.00,21.0,24.6,"03:22:40",1
"21/09/04","03:40",0.0,21.5,96.7,1005.5,314.7,0.8,1.1,334.5,0.00,21.0,24.5,"03:34:24",1
"21/09/04","03:50",0.0,21.5,96.7,1005.0,328.0,0.6,1.1,325.5,0.00,21.0,24.6,"03:40:56",1
"21/09/04","04:00",0.0,21.5,96.7,1004.8,285.1,0.0,0.3,295.1,0.00,21.0,24.4,"03:50:08",1
"21/09/04","04:10",0.0,21.5,96.8,1005.5,307.2,0.7,1.4,310.6,0.00,21.0,24.5,"04:00:02",1
"21/09/04","04:20",0.0,21.6,96.8,1005.5,324.2,1.1,1.6,339.9,0.00,21.1,24.4,"04:12:56",1
"21/09/04","04:30",0.0,21.6,96.8,1005.5,315.8,0.8,1.3,342.4,0.00,21.1,24.5,"04:20:16",1
"21/09/04","04:40",0.0,21.6,96.8,1005.5,265.8,0.2,1.0,296.1,0.00,21.1,24.3,"04:39:52",1
"21/09/04","04:50",0.0,21.6,96.8,1005.5,331.0,1.0,1.4,321.9,0.00,21.1,24.5,"04:41:20",1
"21/09/04","05:00",0.0,21.6,96.8,1005.5,331.5,0.2,1.3,326.2,0.00,21.1,24.5,"04:50:08",1
"21/09/04","05:10",0.2,21.7,96.8,1005.2,300.5,0.7,0.9,272.3,0.00,21.2,24.5,"05:01:28",1
"21/09/04","05:20",0.0,21.6,96.9,1005.0,304.3,0.6,0.9,325.0,0.00,21.1,24.6,"05:11:28",1
"21/09/04","05:30",0.0,21.7,96.9,1005.0,311.5,0.6,1.6,337.4,0.00,21.2,24.4,"05:28:56",1
"21/09/04","05:40",0.2,21.7,96.9,1005.5,291.5,1.1,2.2,325.6,0.00,21.2,24.4,"05:30:56",1
"21/09/04","05:50",0.0,21.7,96.9,1006.2,262.7,0.6,1.2,212.0,0.00,21.2,24.7,"05:44:48",1
"21/09/04","06:00",0.0,21.7,96.9,1006.2,339.3,0.8,1.3,335.0,0.00,21.2,24.3,"05:53:52",1
"21/09/04","06:10",0.2,21.7,96.9,1006.0,314.5,0.8,1.4,335.0,0.00,21.2,24.5,"06:06:40",1
"21/09/04","06:20",0.0,21.7,97.0,1005.7,317.3,1.0,1.6,340.8,0.00,21.2,24.4,"06:12:48",1
"21/09/04","06:30",0.0,21.7,97.0,1005.7,273.1,0.6,1.1,258.4,0.00,21.2,24.6,"06:20:24",1
"21/09/04","06:40",0.0,21.8,97.0,1005.5,275.0,0.7,1.3,324.2,0.00,21.3,24.7,"06:34:00",1
"21/09/04","06:50",0.2,21.8,97.0,1005.5,326.3,1.0,1.7,352.4,0.00,21.3,24.3,"06:44:56",1
"21/09/04","07:00",0.0,21.8,97.0,1005.5,229.3,0.3,1.1,249.7,0.00,21.3,24.5,"06:52:00",1
"21/09/04","07:10",0.0,21.9,97.0,1005.2,300.1,0.6,0.9,265.0,0.00,21.4,24.4,"07:04:16",1
"21/09/04","07:20",0.0,22.1,97.0,1005.2,323.3,0.5,2.0,245.2,0.01,21.6,24.5,"07:19:44",1
"21/09/04","07:30",0.0,22.1,97.0,1005.7,231.6,1.0,2.2,244.9,0.02,21.6,24.5,"07:20:08",1
"21/09/04","07:40",0.0,22.3,97.0,1006.0,306.1,0.3,1.0,242.2,0.02,21.8,24.5,"07:30:08",1
"21/09/04","07:50",0.2,22.5,97.0,1006.2,346.5,0.8,1.6,329.7,0.03,22.0,24.5,"07:44:08",1
"21/09/04","08:00",0.0,22.5,97.0,1006.0,346.6,0.7,1.6,357.6,0.02,22.0,24.5,"07:53:44",1
"21/09/04","08:10",0.0,22.7,97.0,1006.0,238.0,0.6,1.4,245.2,0.06,22.2,24.3,"08:08:00",1
"21/09/04","08:20",0.0,23.1,97.0,1006.0,263.7,0.6,1.4,239.2,0.12,22.6,24.5,"08:12:16",1
"21/09/04","08:30",0.0,23.3,96.9,1005.7,325.2,0.8,2.1,338.0,0.09,22.8,24.4,"08:27:28",1
"21/09/04","08:40",0.0,23.5,96.7,1005.7,247.7,0.6,1.7,350.9,0.10,23.0,24.5,"08:30:08",1
"21/09/04","08:50",0.0,23.4,96.7,1006.2,213.7,0.8,1.9,215.5,0.06,22.9,24.5,"08:46:08",1
"21/09/04","09:00",0.0,23.7,96.7,1006.0,164.2,0.5,1.6,133.3,0.06,23.2,24.3,"08:54:16",1
"21/09/04","09:10",0.0,24.1,96.6,1005.7,230.8,0.3,0.8,206.9,0.11,23.6,24.2,"09:04:00",1
"21/09/04","09:20",0.0,24.3,96.7,1006.0,306.7,0.6,1.0,333.3,0.16,23.8,24.4,"09:12:00",1
"21/09/04","09:30",0.0,24.9,96.6,1005.7,260.9,0.6,1.4,353.1,0.23,24.4,24.4,"09:29:28",1
"21/09/04","09:40",0.0,24.9,96.2,1005.7,258.0,0.7,1.8,324.7,0.21,24.3,24.4,"09:33:20",1
"21/09/04","09:50",0.0,24.9,95.8,1006.0,255.3,0.3,0.9,196.3,0.16,24.2,24.7,"09:48:24",1
"21/09/04","10:00",0.0,24.6,96.1,1005.7,301.0,0.8,1.9,342.6,0.10,24.0,24.7,"09:54:16",1
"21/09/04","10:10",0.0,24.6,96.2,1006.0,331.6,1.0,1.7,338.8,0.15,24.0,24.7,"10:07:44",1
"21/09/04","10:20",0.0,25.2,96.1,1005.7,310.2,0.7,1.9,327.2,0.26,24.6,24.7,"10:12:00",1
"21/09/04","10:30",0.0,25.6,95.6,1005.7,253.1,0.5,1.1,352.2,0.21,24.9,24.7,"10:25:20",1
"21/09/04","10:40",0.0,25.8,95.5,1005.0,229.1,0.5,1.6,206.2,0.15,25.1,24.7,"10:35:12",1
"21/09/04","10:50",0.0,25.8,95.0,1005.0,230.2,0.3,1.4,329.4,0.17,25.0,24.7,"10:40:48",1
"21/09/04","11:00",0.0,26.3,94.9,1005.0,269.6,0.2,1.2,235.7,0.12,25.5,24.7,"10:56:40",1
"21/09/04","11:10",0.0,25.9,94.1,1004.8,193.5,0.3,1.4,240.7,0.08,24.9,24.8,"11:08:40",1
"21/09/04","11:20",0.0,25.1,94.5,1004.5,250.3,0.8,2.1,246.7,0.04,24.2,24.7,"11:12:32",1
"21/09/04","11:30",0.0,25.1,94.5,1004.8,270.3,0.8,2.1,243.8,0.07,24.2,24.9,"11:20:56",1
"21/09/04","11:40",0.0,25.2,93.9,1004.8,282.5,0.7,1.7,257.8,0.09,24.2,24.9,"11:35:36",1
"21/09/04","11:50",0.0,26.0,94.2,1004.8,293.5,0.6,1.7,350.4,0.23,25.0,24.7,"11:44:08",1
"21/09/04","12:00",0.0,26.7,92.2,1004.1,326.6,0.8,2.5,347.1,0.46,25.4,24.8,"11:56:00",1
"21/09/04","12:10",0.0,26.6,91.0,1005.0,189.8,1.0,1.7,230.0,0.23,25.0,25.0,"12:00:56",1
"21/09/04","12:20",0.0,26.7,89.3,1005.2,172.6,0.3,1.3,157.3,0.13,24.8,25.2,"12:10:40",1
"21/09/04","12:30",0.0,26.6,88.3,1005.0,291.3,0.6,1.7,339.8,0.05,24.5,24.9,"12:26:56",1
"21/09/04","12:40",0.0,26.7,86.9,1005.0,347.3,0.8,1.6,343.7,0.05,24.4,25.1,"12:36:56",1
"21/09/04","12:50",0.0,26.5,85.7,1004.5,345.5,0.8,1.6,15.5,0.05,23.9,25.2,"12:40:08",1
"21/09/04","13:00",0.0,26.8,85.3,1004.5,334.7,0.7,1.4,335.4,0.05,24.2,25.3,"12:59:12",1
"21/09/04","13:10",0.0,26.6,85.4,1005.0,316.4,1.1,1.8,323.4,0.03,24.0,25.2,"13:06:00",1
"21/09/04","13:20",0.0,26.4,85.9,1005.0,303.0,0.7,1.2,308.8,0.05,23.9,25.1,"13:12:24",1
"21/09/04","13:30",0.0,26.5,86.6,1004.8,328.6,1.1,2.0,334.7,0.11,24.1,25.3,"13:26:32",1
"21/09/04","13:40",0.0,26.3,86.8,1005.0,320.9,1.1,1.9,348.5,0.06,24.0,25.2,"13:34:08",1
"21/09/04","13:50",0.0,26.3,87.3,1005.0,320.6,1.0,1.6,341.1,0.07,24.1,25.3,"13:45:28",1
"21/09/04","14:00",0.0,26.4,87.6,1005.0,306.2,0.7,1.6,325.9,0.11,24.2,25.2,"13:50:24",1
"21/09/04","14:10",0.0,26.7,87.2,1004.5,297.6,0.7,1.7,345.6,0.16,24.4,25.4,"14:09:36",1
"21/09/04","14:20",0.0,26.8,86.9,1004.5,303.6,1.0,2.1,338.4,0.17,24.5,25.3,"14:12:40",1
"21/09/04","14:30",0.0,26.7,86.3,1004.5,283.9,1.0,2.0,247.0,0.13,24.3,25.4,"14:20:08",1
"21/09/04","14:40",0.0,26.6,86.3,1004.5,329.6,1.5,3.6,343.8,0.09,24.2,25.4,"14:36:16",1
"21/09/04","14:50",0.0,26.3,86.5,1004.8,321.1,1.3,3.7,338.6,0.06,23.9,25.2,"14:40:48",1
"21/09/04","15:00",0.0,26.3,86.3,1004.3,289.1,1.1,2.4,351.4,0.09,23.9,25.3,"14:56:08",1
"21/09/04","15:10",0.0,26.6,86.3,1004.8,310.8,0.6,1.4,332.1,0.09,24.2,25.3,"15:06:48",1
"21/09/04","15:20",0.0,26.9,86.1,1004.5,318.3,0.5,1.4,338.2,0.12,24.4,25.4,"15:19:04",1
"21/09/04","15:30",0.0,26.8,85.4,1004.5,317.2,1.2,2.1,337.2,0.12,24.2,25.4,"15:23:44",1
"21/09/04","15:40",0.0,26.3,84.7,1004.5,325.7,1.6,3.1,322.9,0.08,23.6,25.5,"15:36:56",1
"21/09/04","15:50",0.0,26.6,83.9,1004.1,303.6,1.0,2.0,310.3,0.09,23.7,25.4,"15:43:12",1
"21/09/04","16:00",0.0,26.4,83.2,1004.3,311.3,1.6,3.6,306.0,0.04,23.4,25.2,"15:58:24",1
"21/09/04","16:10",0.0,25.9,83.4,1005.0,310.9,1.2,2.8,342.4,0.01,22.9,25.5,"16:00:56",1
"21/09/04","16:20",1.4,25.5,84.2,1005.0,314.7,1.1,2.4,246.3,0.02,22.7,25.6,"16:14:24",1
"21/09/04","16:30",0.2,25.2,85.9,1005.2,345.4,0.7,1.7,318.0,0.03,22.7,25.3,"16:22:48",1
"21/09/04","16:40",0.0,25.1,87.2,1005.7,331.1,0.8,2.4,324.4,0.02,22.9,25.3,"16:36:32",1
"21/09/04","16:50",0.0,24.7,88.3,1005.2,325.4,1.5,3.5,342.7,0.02,22.7,25.4,"16:40:32",1
"21/09/04","17:00",0.0,24.5,89.0,1006.0,324.4,1.5,2.6,348.6,0.00,22.6,25.4,"16:52:56",1
"21/09/04","17:10",0.0,24.4,89.6,1006.2,328.1,1.5,2.7,349.3,0.03,22.6,25.4,"17:06:32",1
"21/09/04","17:20",0.0,24.5,90.0,1006.0,326.7,1.5,3.6,321.4,0.06,22.8,25.4,"17:12:48",1
"21/09/04","17:30",0.0,24.7,90.3,1006.2,328.0,1.5,2.9,348.7,0.07,23.0,25.5,"17:20:40",1
"21/09/04","17:40",0.0,24.6,90.0,1006.2,313.3,1.2,2.9,329.0,0.06,22.9,25.7,"17:36:00",1
"21/09/04","17:50",0.0,24.2,90.0,1006.4,327.2,1.5,3.2,330.0,0.02,22.5,25.5,"17:40:24",1
"21/09/04","18:00",0.0,23.7,89.8,1006.4,324.3,1.7,5.4,330.6,0.00,22.0,25.4,"17:59:36",1
"21/09/04","18:10",0.0,23.7,89.8,1006.7,305.3,1.2,2.9,312.6,0.01,22.0,25.5,"18:00:08",1
"21/09/04","18:20",0.0,23.7,89.6,1006.7,331.0,1.0,1.9,335.7,0.00,21.9,25.5,"18:18:56",1
"21/09/04","18:30",0.0,23.5,89.5,1006.9,305.6,0.8,1.6,327.8,0.00,21.7,25.3,"18:20:08",1
"21/09/04","18:40",0.0,23.3,89.5,1007.6,310.3,1.1,2.2,314.5,0.00,21.5,25.4,"18:34:32",1
"21/09/04","18:50",0.0,23.1,89.4,1007.8,332.8,1.1,1.8,35.0,0.00,21.3,25.4,"18:43:04",1
"21/09/04","19:00",0.0,23.0,89.4,1007.6,312.5,0.7,1.7,338.0,0.00,21.2,25.4,"18:57:36",1
"21/09/04","19:10",0.0,22.9,89.5,1007.6,338.9,1.0,1.9,344.7,0.00,21.1,25.4,"19:04:08",1
"21/09/04","19:20",0.0,22.8,89.6,1007.8,309.5,0.7,1.1,319.6,0.00,21.0,25.4,"19:14:24",1
"21/09/04","19:30",0.0,22.6,89.9,1008.3,311.8,1.0,1.1,308.9,0.00,20.9,25.5,"19:20:24",1
"21/09/04","19:40",0.0,22.5,90.3,1008.6,312.2,1.1,1.6,329.5,0.00,20.9,25.5,"19:36:32",1
"21/09/04","19:50",0.0,22.5,90.7,1008.3,304.6,1.1,2.0,341.4,0.00,20.9,25.4,"19:40:56",1
"21/09/04","20:00",0.0,22.3,90.9,1008.8,319.2,1.2,2.0,321.5,0.00,20.8,25.3,"19:50:24",1
"21/09/04","20:10",0.0,22.1,91.3,1008.8,283.6,1.0,1.6,263.7,0.00,20.7,25.4,"20:06:08",1
"21/09/04","20:20",0.0,22.0,91.7,1008.8,322.5,0.8,2.0,352.3,0.00,20.6,25.3,"20:16:32",1
"21/09/04","20:30",0.0,21.9,91.9,1009.0,296.9,1.2,2.5,314.9,0.00,20.6,25.2,"20:21:52",1
"21/09/04","20:40",0.0,21.9,92.2,1009.0,339.9,1.0,1.6,353.7,0.00,20.6,25.1,"20:37:36",1
"21/09/04","20:50",0.0,21.7,92.4,1009.0,330.5,1.2,2.0,341.7,0.00,20.5,25.2,"20:41:12",1
"21/09/04","21:00",0.0,21.5,92.7,1009.3,298.4,1.1,1.7,323.1,0.00,20.3,25.2,"20:52:48",1
"21/09/04","21:10",0.0,21.6,92.8,1009.0,1.3,0.6,1.3,343.1,0.00,20.4,25.3,"21:02:48",1
"21/09/04","21:20",0.0,21.5,93.0,1009.3,316.8,1.2,1.7,323.0,0.00,20.4,25.2,"21:12:08",1
"21/09/04","21:30",0.0,21.5,93.2,1009.0,328.0,1.0,1.7,344.7,0.00,20.4,25.2,"21:23:12",1
"21/09/04","21:40",0.0,21.4,93.5,1009.3,281.1,1.0,1.4,335.0,0.00,20.3,25.3,"21:33:20",1
"21/09/04","21:50",0.0,21.5,93.4,1009.3,271.8,0.7,1.2,250.3,0.00,20.4,25.1,"21:40:40",1
"21/09/04","22:00",0.0,21.6,93.5,1009.5,317.3,1.1,1.6,330.8,0.00,20.5,25.2,"21:53:28",1
"21/09/04","22:10",0.0,21.5,93.6,1009.5,320.9,1.0,1.9,356.3,0.00,20.5,25.1,"22:01:44",1
"21/09/04","22:20",0.0,21.4,93.7,1009.5,305.1,0.2,0.8,283.3,0.00,20.4,25.1,"22:17:52",1
"21/09/04","22:30",0.0,21.3,93.8,1009.3,295.0,0.5,1.2,314.7,0.00,20.3,25.0,"22:25:44",1
"21/09/04","22:40",0.0,21.3,93.9,1009.7,324.1,1.1,1.4,332.0,0.00,20.3,25.2,"22:32:00",1
"21/09/04","22:50",0.0,21.4,94.1,1009.3,324.7,2.0,3.6,331.3,0.00,20.5,25.1,"22:48:00",1
"21/09/04","23:00",0.0,21.4,94.1,1009.5,330.7,2.5,3.7,327.8,0.00,20.5,24.9,"22:55:44",1
"21/09/04","23:10",0.0,21.4,94.2,1009.5,326.2,1.8,2.9,339.8,0.00,20.5,25.1,"23:00:48",1
"21/09/04","23:20",0.0,21.6,94.1,1009.7,332.4,1.3,2.5,333.1,0.00,20.6,25.2,"23:10:08",1
"21/09/04","23:30",0.0,21.6,94.1,1009.5,347.7,0.6,1.2,28.6,0.00,20.6,25.0,"23:20:56",1
"21/09/04","23:40",0.0,21.6,94.0,1009.3,300.3,0.8,1.6,320.2,0.00,20.6,25.0,"23:39:44",1
"21/09/04","23:50",0.0,21.6,94.1,1009.3,291.8,0.7,1.2,263.3,0.00,20.6,24.7,"23:40:40",1
"21/09/04","24:00",0.0,21.5,94.1,1009.5,310.3,1.1,1.9,314.5,0.00,20.6,24.9,"23:56:32",1
